Theta_e
344 343 344 343 342 342 343 342 341 341 341 341 341 341 340 340 341 340 340 340 339 337 335 336 338 339 339 339 339 339 338 337 335 336 338 338 341 340 335 331 331 330 330 331 331 331 330 329 329 327 326 325 325 327 329 331 331 331 330 329 329 329 330 330 331 331 331 331 331 331 331 330 330 330
344 344 344 345 343 343 344 343 341 342 343 342 341 340 339 340 340 340 341 340 338 338 336 335 338 339 340 340 340 340 340 337 335 337 340 339 340 339 333 331 331 331 331 330 330 330 329 328 327 325 324 324 324 325 327 328 330 330 330 329 329 329 329 330 330 330 331 331 331 331 331 330 330 330
345 345 345 346 345 345 345 343 341 342 343 342 341 340 340 340 340 340 340 340 340 338 337 336 337 339 340 339 339 339 340 338 334 336 340 339 337 334 331 330 330 329 329 329 329 329 329 329 328 326 325 324 325 326 326 327 328 329 329 329 329 328 329 329 329 330 330 330 330 330 330 330 329 329
346 347 346 346 347 346 346 344 342 343 344 342 341 341 341 341 341 340 339 340 341 339 338 338 338 338 339 340 339 338 339 338 335 334 338 338 335 332 333 334 333 330 329 329 330 330 331 331 329 326 324 324 325 325 325 326 327 327 328 328 329 329 328 328 328 328 328 328 327 327 327 327 327 327
348 347 347 346 347 346 346 345 343 343 343 342 341 342 342 341 341 340 340 340 341 340 340 340 338 338 339 339 340 339 338 338 337 335 336 338 337 335 336 337 337 335 331 329 331 331 332 331 330 327 326 326 325 325 324 325 326 327 328 328 328 327 326 326 325 325 325 325 324 324 323 323 323 324
349 348 347 346 347 347 346 346 344 343 343 342 341 341 341 341 341 341 340 340 340 341 341 341 340 339 339 338 339 340 338 337 338 338 338 339 338 337 336 336 336 336 333 331 330 330 331 332 331 330 328 327 326 324 324 325 325 326 326 325 325 324 323 321 320 319 319 319 320 319 319 319 320 322
350 349 348 346 346 347 346 346 345 344 343 342 341 341 341 341 340 341 341 340 340 341 341 341 340 339 340 339 338 339 339 338 338 338 338 339 339 338 338 337 335 335 334 332 330 329 330 331 331 330 329 328 326 325 324 324 324 324 324 323 322 322 320 319 318 317 317 317 317 317 317 317 317 319
351 350 349 346 345 347 348 347 346 345 344 343 342 341 341 342 341 341 342 342 340 340 340 341 341 339 340 340 339 339 339 338 338 338 337 338 339 339 338 337 336 335 336 334 331 329 329 331 332 331 329 328 327 326 324 324 324 324 323 323 321 320 319 318 318 318 318 318 318 318 318 318 317 317
352 351 349 347 346 347 348 348 347 346 345 345 344 342 342 342 341 340 342 343 341 340 340 340 341 340 340 340 339 339 339 338 338 338 338 339 339 338 338 337 336 336 336 335 332 331 330 330 331 330 329 328 327 327 325 324 324 324 323 322 320 318 318 318 318 318 318 319 319 319 319 319 319 319
353 352 351 348 347 348 349 348 347 346 346 346 345 343 343 343 343 341 341 343 342 341 341 340 340 341 340 339 339 339 339 338 337 338 340 341 341 340 339 337 336 336 336 335 335 335 334 333 332 331 329 328 328 327 326 325 324 324 322 320 319 318 318 318 318 318 318 319 319 319 319 319 319 319
354 353 352 350 348 349 349 348 347 347 348 347 346 345 344 343 343 342 341 343 342 342 341 340 340 340 340 339 339 338 339 339 338 337 338 339 340 341 341 339 337 335 335 336 335 334 334 333 333 331 329 328 328 327 326 325 324 323 321 319 319 319 319 319 319 319 319 318 318 318 318 317 317 317
355 354 353 352 350 350 350 349 347 347 348 349 347 346 345 344 344 342 342 342 342 342 341 340 340 340 339 339 338 338 340 340 339 338 338 337 337 339 340 340 338 337 336 335 335 335 334 334 333 333 332 331 331 329 328 326 324 323 322 321 320 319 319 319 319 319 318 317 317 318 318 317 317 317
356 355 354 353 352 351 350 349 347 347 348 349 348 347 346 345 344 343 342 342 342 342 341 340 340 340 339 339 338 338 339 339 339 340 341 339 337 337 338 338 338 338 337 335 335 336 336 336 335 334 334 333 331 330 327 326 325 325 323 321 320 319 319 319 319 318 318 317 317 317 317 316 315 315
357 356 355 354 352 351 350 348 346 345 346 346 346 348 348 346 344 344 343 342 341 341 341 340 340 340 339 339 338 337 337 337 339 341 341 339 338 337 336 335 337 338 337 335 335 335 335 335 334 332 331 330 328 326 325 325 325 324 321 319 318 317 317 317 316 315 314 314 313 312 312 311 311 311
358 357 356 355 353 350 349 348 346 344 343 343 343 345 346 345 344 343 343 342 341 340 341 340 339 339 339 338 337 336 336 336 338 339 338 337 337 335 334 334 334 337 337 335 333 333 332 332 331 329 329 328 326 325 324 323 322 321 318 314 313 313 312 312 311 310 310 310 310 311 311 312 312 312
359 358 356 355 354 352 349 348 346 344 343 342 341 341 343 343 341 340 341 342 342 341 340 340 340 339 339 338 337 337 336 335 336 336 336 336 336 334 333 332 332 335 336 334 332 331 330 329 328 328 327 326 325 324 323 322 322 320 314 309 307 308 309 309 310 310 311 312 312 313 313 314 314 315
359 358 357 356 355 353 350 348 347 346 344 341 341 340 340 340 339 337 338 339 341 341 341 340 340 339 339 339 338 337 337 336 335 335 334 334 334 334 333 333 332 334 333 331 330 329 327 327 326 326 326 324 323 322 321 322 321 316 310 307 308 309 310 311 312 312 313 314 314 314 314 314 315 315
359 359 357 356 356 354 352 349 348 348 346 343 341 340 339 339 338 337 337 337 338 339 340 341 340 339 340 340 338 338 338 337 336 335 334 334 334 334 333 332 332 331 330 330 328 327 326 326 325 324 324 322 321 320 319 319 317 312 308 307 309 310 310 311 311 311 312 312 313 313 314 314 314 314
358 358 358 357 356 355 353 350 348 349 349 346 343 341 340 340 340 339 340 339 337 337 338 340 340 339 339 339 339 338 338 337 336 335 334 334 334 333 332 331 330 328 328 328 327 325 325 324 323 322 322 321 320 319 317 316 314 312 309 308 308 309 309 309 308 308 308 308 309 310 310 311 311 312
356 357 357 357 357 356 355 351 348 348 349 348 347 344 343 343 342 342 342 340 338 337 338 339 338 338 338 338 337 336 335 336 335 334 333 333 332 332 331 329 327 326 326 326 326 325 324 322 321 321 321 320 319 317 316 316 315 313 311 311 310 310 310 308 307 308 309 309 309 309 310 310 311 312
355 355 356 356 357 357 356 353 349 347 347 349 349 347 345 344 343 344 343 340 339 338 338 338 337 336 336 335 333 331 330 330 331 333 333 331 330 330 330 328 327 326 324 324 324 323 321 319 319 320 319 318 317 316 315 316 316 315 314 314 312 311 311 310 309 309 310 311 311 312 312 312 313 313
354 354 354 355 356 357 356 354 351 348 346 348 349 347 346 346 345 344 342 340 338 337 337 337 336 335 334 332 330 328 325 324 327 332 333 331 328 328 327 326 326 324 322 322 322 321 319 318 318 318 317 316 315 315 315 315 315 316 316 316 314 312 312 311 311 311 311 312 312 312 312 313 313 314
354 354 354 354 354 355 356 354 352 348 346 347 348 347 346 346 345 343 342 340 338 337 337 336 335 333 331 329 327 325 324 325 328 330 331 329 327 326 325 324 324 323 322 323 322 320 319 317 316 315 315 315 315 315 315 315 315 315 315 316 316 315 313 312 312 312 313 313 313 314 315 316 316 317
355 354 354 354 352 353 354 353 351 349 346 346 347 347 346 346 344 343 341 339 338 338 337 336 335 333 330 329 328 327 327 328 328 327 327 326 325 325 324 322 322 321 321 322 321 319 318 316 314 314 314 314 315 315 314 315 314 314 315 315 315 315 315 314 314 313 313 314 314 316 317 318 318 318
355 354 354 354 352 352 351 351 351 349 346 344 345 346 346 345 344 342 340 339 338 338 338 337 335 333 331 330 331 331 329 327 325 324 324 324 323 323 322 321 321 320 321 321 319 318 317 315 314 314 314 314 314 314 314 314 313 313 314 313 313 314 314 314 313 313 314 315 316 317 318 318 317 318
354 355 354 353 352 351 350 349 349 348 346 344 344 345 345 344 342 341 340 339 338 338 338 336 334 333 332 331 332 331 328 326 324 323 323 323 322 321 320 321 321 320 321 321 318 317 316 316 314 313 314 314 314 314 313 313 313 313 313 313 313 313 313 312 313 314 316 317 317 317 317 317 317 317
355 355 355 353 352 351 350 348 347 347 346 344 343 343 344 343 341 339 339 339 338 337 337 335 333 333 333 331 329 327 325 324 324 323 323 322 321 320 320 320 320 319 320 319 317 316 316 316 315 314 314 315 315 314 313 313 313 313 313 313 312 312 312 313 314 315 316 317 317 317 317 317 317 317
355 355 355 353 351 351 350 348 346 346 345 344 343 343 343 341 340 339 339 338 337 337 335 333 333 334 332 329 326 325 324 324 323 323 322 322 321 321 322 321 320 319 318 317 316 315 316 316 315 314 314 314 314 313 313 313 313 313 313 312 312 312 313 314 315 316 316 316 316 317 317 317 317 317
355 355 354 352 351 350 349 347 345 344 345 344 342 342 341 340 339 339 339 338 337 336 335 333 333 333 330 327 325 324 324 325 324 323 322 322 322 322 323 322 321 319 317 316 315 314 315 315 314 313 313 312 312 313 313 313 313 313 312 312 312 313 313 314 315 316 316 315 316 316 316 316 317 317
355 355 354 352 350 349 348 346 344 343 344 343 341 340 340 339 338 338 338 337 336 336 335 333 333 331 327 325 325 326 326 326 324 323 323 323 323 323 323 322 321 319 318 317 315 314 314 314 313 313 313 312 312 312 312 312 312 312 311 312 312 313 314 315 315 315 314 314 314 314 315 315 316 316
355 354 353 351 350 349 347 345 343 343 343 341 339 339 339 338 338 338 338 337 336 335 334 332 331 328 326 326 328 328 327 326 324 324 324 324 323 322 322 321 320 319 318 317 315 313 313 312 312 312 313 312 312 312 312 312 312 311 311 312 313 314 315 315 314 314 314 314 314 315 315 315 316 316
354 353 352 350 348 345 342 340 339 339 339 338 337 337 338 337 337 337 336 336 335 334 333 331 329 326 326 327 328 327 325 324 324 325 325 324 323 321 320 320 320 319 317 316 315 314 313 312 312 313 313 313 312 312 312 311 311 311 312 312 313 314 314 314 314 313 313 313 314 314 315 315 315 315
350 350 350 346 341 338 336 335 335 335 335 335 335 336 336 336 336 335 335 335 334 334 333 330 327 326 327 327 326 324 323 323 324 325 325 324 323 321 320 320 319 318 317 316 314 314 313 313 313 313 313 313 313 313 312 312 312 311 312 313 314 315 314 314 313 313 313 313 313 313 313 314 314 314
347 346 344 339 335 334 334 334 333 334 334 335 335 335 335 335 335 334 334 334 334 333 332 329 327 327 327 325 323 323 324 325 325 325 325 324 323 321 320 320 319 318 317 315 313 312 313 313 313 313 313 313 314 314 314 314 313 313 313 313 314 314 314 313 313 313 313 313 313 313 313 313 313 313
343 342 338 334 333 334 334 333 333 333 334 334 334 334 334 334 334 334 334 333 333 333 331 328 328 327 325 324 324 324 324 325 325 325 324 323 322 321 320 319 319 318 316 315 313 312 312 312 312 312 312 312 313 314 315 314 313 314 314 314 314 314 313 313 314 313 313 313 313 313 313 312 312 312
342 339 336 334 334 334 334 333 333 333 333 333 333 332 332 332 333 333 333 332 332 331 329 327 326 325 324 324 324 325 324 324 324 324 323 322 321 321 320 319 318 317 315 314 312 311 311 311 310 311 311 311 311 312 314 315 313 312 313 313 314 314 313 314 314 313 313 313 312 311 311 311 311 311
341 339 336 335 335 334 334 334 334 334 333 332 332 331 330 331 331 331 331 331 331 329 326 324 324 324 324 324 324 325 324 324 323 323 322 321 320 320 319 318 317 316 315 313 312 311 310 310 310 310 311 311 311 310 312 314 314 312 312 312 312 313 313 314 314 314 313 312 311 310 310 310 309 310
340 339 337 337 335 335 334 334 334 334 333 332 331 330 329 330 330 330 330 331 329 326 324 324 324 324 324 324 324 325 325 323 322 322 321 320 320 319 319 318 317 315 314 313 312 311 310 310 311 311 310 311 311 311 311 312 312 312 312 311 311 313 314 315 314 314 313 312 311 310 308 308 308 309
339 338 337 337 335 335 335 334 334 334 333 332 331 330 329 330 331 330 330 329 327 324 323 324 324 324 325 325 325 325 324 323 322 321 320 319 319 319 318 317 316 314 314 312 311 311 311 311 311 311 311 311 311 311 310 310 309 309 309 310 311 314 315 314 314 313 312 312 311 310 309 307 307 308
338 337 337 336 335 335 335 335 334 334 333 331 330 329 330 330 330 330 328 327 325 323 323 324 324 325 325 325 326 325 324 322 322 321 320 319 318 318 317 316 315 314 313 312 311 310 310 310 311 311 311 310 309 308 308 309 310 311 312 313 314 314 313 313 312 312 311 311 311 310 309 308 307 308
337 336 336 335 335 335 334 333 333 332 331 331 330 330 330 330 329 328 326 325 324 324 324 324 325 326 326 326 326 325 323 322 322 321 320 319 318 316 314 313 313 312 311 310 310 310 309 310 311 310 309 308 308 308 310 311 312 313 312 313 313 313 312 311 311 311 311 311 310 309 308 307 307 308
336 336 335 334 334 333 332 332 332 332 331 331 330 330 329 329 328 326 325 323 324 325 325 326 327 327 326 326 326 324 322 321 321 319 318 317 316 314 312 311 310 310 310 310 310 310 309 309 309 309 309 310 310 311 312 312 312 312 311 311 312 312 312 311 311 311 310 309 309 309 308 307 307 308
335 335 334 333 333 332 332 332 332 331 331 331 330 329 328 327 326 324 324 325 326 326 327 327 327 326 325 325 323 321 320 319 319 318 316 315 314 313 312 311 310 310 310 310 310 308 308 309 309 309 310 310 311 311 311 311 311 311 311 311 311 312 312 313 312 310 309 308 307 307 307 307 307 307
334 333 333 332 332 331 331 331 331 331 330 329 328 328 328 327 325 325 326 327 327 326 326 327 326 324 323 322 320 319 318 318 317 316 315 314 313 313 313 312 311 311 310 309 309 308 308 309 309 309 309 310 310 310 310 310 311 310 310 311 312 313 314 313 311 309 308 307 307 306 306 306 306 306
332 332 332 331 331 331 331 330 330 330 329 328 328 328 328 327 326 326 326 326 325 325 325 325 323 322 321 320 319 318 317 316 315 315 314 313 312 312 311 311 311 310 310 309 308 308 308 308 308 309 309 310 310 310 310 310 310 310 311 312 313 313 313 312 310 308 307 307 306 305 305 305 306 306
Wind_Speed
13 13 13 12 11 9 8 8 8 8 7 7 6 6 7 6 4 3 3 3 4 5 6 5 5 6 5 4 6 7 7 10 12 9 8 7 8 9 10 11 13 13 13 13 12 12 12 12 12 12 13 13 14 15 15 16 16 16 17 16 16 16 16 16 16 15 15 15 15 15 15 16 16 16
14 14 13 13 12 10 9 9 9 9 9 9 8 8 8 8 7 5 3 3 4 5 5 5 4 5 4 5 5 5 6 9 9 7 6 6 7 9 9 10 11 12 12 12 11 11 11 11 11 11 11 11 12 13 14 15 16 16 16 16 16 16 16 16 16 16 16 16 16 16 16 16 17 17
15 15 14 13 13 11 10 10 10 10 11 10 10 9 9 9 9 8 6 4 4 5 6 5 4 4 4 5 5 5 6 7 7 5 5 6 8 9 9 9 10 10 10 10 10 11 11 11 11 11 11 11 11 12 12 13 14 15 16 16 16 16 16 16 16 16 16 16 16 17 17 17 17 18
16 16 16 15 14 12 12 11 11 11 11 11 11 10 10 10 10 10 9 7 6 6 6 6 6 6 5 5 5 6 6 7 7 6 7 8 10 9 8 9 9 8 9 9 10 11 12 12 12 11 11 11 12 12 12 12 13 14 15 15 15 15 16 16 16 17 18 18 19 20 20 20 20 20
17 17 17 16 15 14 14 12 12 12 12 12 12 11 11 11 11 12 11 9 8 8 7 7 7 6 6 6 6 7 7 7 7 7 8 9 9 8 8 9 10 9 9 8 10 13 13 13 12 12 12 12 12 12 12 13 13 13 14 15 15 16 17 18 19 20 22 22 22 23 23 23 23 23
17 17 18 17 16 16 16 14 13 12 12 13 13 13 12 12 12 12 12 11 9 9 8 7 7 7 7 7 6 7 8 7 7 8 8 8 8 8 8 8 10 10 10 9 11 13 14 14 13 13 13 13 13 13 13 14 14 14 14 15 16 18 19 20 21 22 23 23 22 22 22 23 23 23
18 17 18 18 18 17 17 16 15 13 13 13 13 13 13 13 12 12 13 12 10 10 8 7 8 7 7 7 6 7 8 8 8 8 8 8 8 9 9 9 10 11 11 11 12 13 15 15 15 14 14 14 13 13 14 15 15 15 16 17 18 19 20 20 21 20 21 20 20 19 19 20 21 22
20 19 19 19 19 18 18 18 17 16 15 14 14 14 13 13 13 13 13 13 12 11 10 8 7 7 7 7 6 7 8 8 9 9 9 9 9 8 9 9 10 11 13 14 14 13 14 15 15 15 15 15 14 14 14 16 17 17 17 18 19 19 18 18 18 18 18 18 18 18 17 17 18 19
21 20 20 20 20 20 19 19 18 18 17 16 15 14 14 14 14 13 13 13 13 12 11 10 8 7 7 7 7 7 8 8 9 9 9 9 9 9 9 10 10 11 13 14 12 12 13 14 16 16 16 15 15 15 15 16 17 17 17 17 17 16 16 16 17 17 18 17 18 18 18 17 18 18
22 21 21 20 20 21 21 20 19 19 18 18 17 16 15 14 14 14 14 13 13 13 12 11 10 9 9 8 8 8 9 9 9 9 9 9 9 9 9 10 10 10 11 10 9 9 10 12 14 15 16 16 15 15 16 16 16 16 17 16 15 15 15 15 16 17 18 18 17 17 17 17 17 17
23 22 22 21 21 22 23 22 20 19 19 19 18 17 16 16 15 14 14 14 14 14 13 13 12 11 10 9 9 9 9 10 10 10 9 9 8 8 8 9 9 9 9 10 10 10 9 10 12 14 16 16 15 16 16 16 17 17 16 14 13 14 15 15 16 15 15 16 17 17 17 17 17 17
23 23 22 22 22 23 24 23 21 20 20 19 18 18 17 17 16 15 14 14 15 14 14 14 14 12 11 10 10 9 9 11 11 10 10 10 9 8 8 8 8 8 8 9 10 9 9 9 10 12 14 14 13 14 14 15 16 14 10 10 12 14 15 14 14 14 14 15 16 17 17 18 19 19
23 23 23 22 22 24 25 26 25 22 21 20 18 18 18 18 17 16 15 14 15 15 14 15 14 12 12 11 11 11 11 12 11 9 9 9 9 8 9 9 8 7 7 8 8 7 7 8 8 9 11 11 11 13 15 15 13 8 8 12 14 14 14 13 14 15 16 18 20 21 22 23 23 23
23 23 23 22 23 25 27 28 27 26 25 24 20 18 19 20 18 17 16 15 16 15 14 15 14 13 12 12 12 12 12 11 10 8 8 9 8 8 9 10 8 7 7 8 8 8 8 9 10 11 12 12 12 14 14 13 11 11 13 16 15 15 15 16 17 19 20 21 22 22 22 23 22 22
23 23 23 22 23 26 28 28 28 28 27 28 25 21 21 21 21 19 17 16 17 17 15 15 15 13 13 11 11 11 11 10 10 9 8 8 8 9 10 10 8 6 6 7 9 9 9 10 12 12 12 13 13 13 12 12 14 15 17 17 16 17 18 18 19 20 20 19 18 17 17 18 18 19
22 22 23 22 21 23 27 27 27 28 29 29 28 26 25 25 23 21 19 17 17 17 16 16 15 14 12 11 10 11 10 10 9 9 8 8 9 10 10 10 9 5 4 6 9 10 10 11 13 13 12 12 11 10 12 13 14 15 16 16 16 16 16 16 16 16 15 15 15 15 15 16 17 18
23 22 22 21 20 21 25 26 24 25 28 29 27 26 27 28 27 25 23 21 20 18 16 16 17 15 12 11 11 10 9 8 9 9 8 8 8 9 10 10 9 6 5 8 10 12 12 11 11 11 10 9 8 9 12 13 13 14 14 12 12 13 13 13 14 13 14 14 14 15 16 16 16 17
24 24 23 22 21 20 23 26 23 21 23 26 27 28 28 29 29 27 25 23 24 22 18 16 17 16 13 11 10 9 9 9 8 8 7 7 8 9 9 8 8 9 9 8 9 12 10 8 9 10 10 9 8 10 12 13 14 13 10 9 10 12 12 13 14 14 15 15 15 16 16 16 17 17
25 25 25 24 23 21 23 27 26 23 21 22 24 27 27 26 24 24 24 22 23 25 22 18 17 16 13 11 9 9 9 9 7 6 6 5 5 6 7 8 9 11 9 6 7 10 9 7 9 11 10 10 10 10 12 14 14 12 10 11 11 11 12 14 14 15 16 17 17 17 18 18 19 19
27 27 26 25 24 22 23 27 29 26 23 21 21 23 22 22 20 20 21 21 21 22 22 21 19 17 14 13 12 11 10 8 7 6 6 5 5 6 8 9 10 9 6 5 6 8 8 7 9 11 11 11 12 12 12 12 11 12 13 13 12 12 14 13 12 14 15 16 17 17 17 18 18 19
28 29 28 26 24 23 23 26 29 28 25 22 21 21 20 19 20 19 20 21 23 22 22 22 22 18 15 14 13 12 12 11 9 8 8 8 9 9 8 8 8 7 5 4 5 6 8 8 9 11 11 12 13 12 10 8 9 12 14 14 13 13 14 14 13 13 13 14 15 16 17 17 18 19
28 30 30 30 27 24 24 27 28 29 27 24 22 21 20 20 21 20 18 19 22 23 22 22 21 18 16 14 13 13 13 12 11 9 8 8 8 8 7 7 6 6 5 4 4 4 8 9 9 10 11 12 12 11 9 8 9 12 13 13 13 13 14 15 16 14 12 13 14 15 16 16 18 19
30 30 30 32 32 27 25 28 29 29 29 26 23 21 20 21 23 22 20 19 20 21 21 19 18 17 16 15 14 14 13 13 12 10 8 8 7 7 8 6 5 5 4 4 5 5 9 9 9 9 9 10 9 9 10 9 9 10 11 12 12 12 14 16 16 15 14 14 15 16 16 15 16 16
30 31 31 32 35 32 28 29 29 30 30 28 25 22 22 24 25 23 21 20 20 20 19 17 16 15 15 14 13 13 13 13 12 11 9 9 8 8 8 6 5 5 3 4 3 4 8 9 9 9 9 9 10 10 11 11 11 11 11 11 12 12 13 14 14 14 14 14 15 16 14 14 15 15
30 32 33 32 33 34 33 32 30 29 30 30 27 24 24 26 26 23 22 21 22 21 20 18 16 14 14 14 13 13 13 13 12 12 11 10 10 9 7 6 5 5 3 2 2 5 7 9 9 9 9 10 11 12 12 12 12 11 10 11 12 12 13 13 13 13 13 13 14 14 13 14 17 18
31 31 34 34 33 33 35 36 34 31 28 30 30 26 24 26 26 25 23 23 23 22 20 19 17 15 15 15 14 14 13 12 12 12 12 11 10 8 6 4 5 5 4 4 6 6 7 8 8 8 10 11 12 13 13 13 12 10 10 11 12 12 13 13 13 12 12 12 13 13 14 17 19 20
32 31 33 36 35 34 34 37 38 34 30 31 31 27 26 27 27 26 25 23 24 22 20 20 18 17 16 16 15 15 13 13 13 13 12 11 10 8 6 5 6 7 7 6 6 6 7 8 8 8 9 11 12 13 13 12 12 12 12 12 12 12 12 12 12 13 12 13 14 15 16 18 18 19
32 33 35 37 36 35 34 37 39 36 31 32 32 30 29 29 28 28 26 24 24 23 21 21 20 18 17 16 16 15 14 14 14 13 11 11 10 8 7 7 7 7 8 8 7 7 8 8 8 8 9 11 13 12 12 13 14 13 13 13 13 12 12 12 12 12 13 14 15 16 17 18 17 18
32 34 38 39 38 37 36 38 39 37 34 33 34 34 32 30 31 30 27 25 25 24 22 22 21 18 17 16 16 15 14 14 14 13 11 10 9 9 9 8 8 9 8 8 7 7 8 9 9 9 10 11 13 13 13 14 15 14 14 14 14 13 12 11 11 12 14 15 16 17 17 18 18 18
30 34 37 39 38 38 38 39 41 40 36 34 36 36 33 32 33 32 27 25 26 24 23 23 20 18 17 16 16 16 16 15 15 13 12 10 10 10 10 9 8 8 8 8 8 8 8 9 9 9 10 11 13 14 14 14 15 15 14 13 13 13 11 11 12 13 14 16 17 18 18 19 20 20
29 32 35 37 36 36 36 38 40 40 37 36 38 38 34 31 33 31 28 27 27 25 23 22 19 17 17 16 16 17 16 15 14 13 12 11 10 11 11 9 7 7 7 8 8 8 9 9 9 10 11 12 13 14 14 15 15 15 14 13 13 12 12 12 13 14 14 16 18 19 19 20 19 19
30 32 34 34 34 34 36 37 36 35 36 37 38 37 33 31 31 30 28 27 25 22 22 21 18 17 18 18 17 17 16 15 14 13 13 11 11 11 11 9 7 6 5 7 8 9 9 10 10 11 11 12 13 15 15 15 15 14 13 12 12 13 13 13 13 14 15 17 19 20 20 20 19 19
29 33 36 35 35 36 36 34 31 28 29 30 30 31 32 30 29 30 29 27 24 22 22 21 19 19 19 18 17 17 15 15 14 14 13 12 11 12 11 9 8 6 6 7 7 8 9 9 10 11 12 14 15 15 15 15 15 13 12 11 12 12 13 12 13 15 16 17 19 20 20 20 19 19
36 40 40 38 38 38 35 32 29 27 27 27 28 31 33 31 30 31 29 26 25 24 24 22 21 21 19 18 18 17 16 15 15 14 13 12 12 12 12 10 7 6 6 7 7 7 8 8 9 11 14 15 16 17 17 16 14 12 11 11 11 12 13 13 13 15 16 17 19 20 21 21 20 19
40 44 43 40 40 38 34 33 31 27 26 29 31 31 30 30 31 32 28 26 26 25 24 23 22 21 19 19 18 17 16 15 15 14 13 13 13 13 13 10 7 6 7 8 8 7 7 7 9 11 12 13 14 16 19 17 12 10 11 11 11 12 13 14 14 15 17 17 17 19 21 22 21 20
41 42 42 39 39 38 35 36 36 32 29 31 33 33 30 29 31 30 27 27 28 25 23 23 21 20 19 18 17 17 16 15 15 15 13 13 14 14 12 10 7 6 7 8 8 7 7 8 9 10 11 11 10 10 10 14 11 8 10 12 12 13 14 14 14 15 16 16 17 19 21 22 23 22
39 42 43 42 42 42 41 41 41 39 36 33 33 35 33 28 27 28 28 28 28 26 24 23 21 19 19 18 16 16 16 15 15 15 14 14 15 14 12 10 8 8 8 8 8 8 7 8 9 9 10 9 7 7 6 7 10 10 10 11 13 14 14 14 15 15 16 16 17 19 20 22 24 24
37 39 41 41 42 42 42 43 42 41 39 36 33 34 33 28 25 28 30 29 28 27 26 24 21 19 19 18 17 16 16 15 16 16 15 15 15 14 12 9 8 8 9 8 8 8 8 8 9 9 9 8 7 7 7 8 9 11 10 12 15 15 14 14 15 16 17 17 18 19 20 23 25 26
41 39 38 40 42 41 40 41 41 40 39 36 33 33 32 28 25 27 31 30 29 28 27 24 21 20 19 18 17 16 16 16 16 16 16 15 15 14 12 9 8 8 8 9 9 8 9 9 9 9 9 9 9 9 10 13 16 16 16 18 18 15 12 14 16 18 19 19 19 20 22 23 25 26
42 43 41 40 41 41 42 42 40 40 39 36 35 34 30 25 23 26 30 30 27 27 26 23 21 19 18 18 17 17 17 16 16 16 15 14 14 13 12 10 9 8 8 9 9 9 9 9 8 8 9 10 12 13 14 16 18 19 18 17 15 12 11 13 15 17 19 20 20 22 22 23 23 23
41 42 41 41 39 38 40 41 39 38 37 36 36 35 31 26 26 28 29 28 26 25 24 22 20 19 18 18 17 16 16 16 15 15 14 13 13 13 11 10 9 9 9 9 9 9 7 6 6 9 11 12 13 13 13 14 15 15 15 13 12 12 12 12 14 17 18 19 20 21 21 21 22 22
44 40 39 41 41 38 38 39 37 36 35 35 36 35 31 28 29 29 27 27 26 24 21 20 19 18 17 17 17 16 15 15 15 14 13 13 13 13 12 11 11 11 11 10 8 7 5 4 5 8 10 10 11 12 12 12 13 14 15 14 14 13 12 13 15 17 18 19 21 20 20 20 20 19
41 40 38 39 40 39 38 37 36 34 33 34 35 33 28 27 29 29 27 26 25 22 19 18 18 18 17 17 17 16 15 15 14 13 13 13 14 13 13 12 12 11 10 8 7 6 5 6 6 7 9 10 11 12 13 14 15 15 15 15 14 13 13 15 16 16 18 21 21 20 20 20 17 17
36 38 39 40 41 41 40 37 36 34 33 33 34 31 29 29 30 30 28 26 23 21 18 18 18 18 17 16 16 15 15 14 13 13 13 13 13 13 12 11 11 10 9 8 7 6 6 6 6 7 9 11 11 12 14 14 15 15 16 16 15 15 14 14 14 16 19 19 18 18 19 19 19 22
41 38 39 40 40 41 40 37 36 35 34 34 34 33 32 31 31 29 27 25 22 20 18 18 18 17 17 16 16 15 14 13 12 12 12 13 13 13 12 11 11 10 9 8 7 6 6 5 6 7 9 10 11 13 14 14 15 16 16 16 15 14 13 13 15 17 18 17 16 16 16 17 19 21
Wind_Direction
201 206 206 209 216 214 212 216 217 215 213 214 213 215 226 232 242 246 228 227 214 198 217 224 190 193 229 240 242 250 246 242 246 249 248 244 242 249 248 241 241 246 253 262 269 273 277 279 282 284 286 288 288 286 285 282 280 279 278 279 281 282 283 282 279 276 274 272 272 274 275 276 277 277
203 206 206 206 211 212 211 215 217 213 209 211 214 217 223 223 231 245 246 247 231 206 225 240 201 188 219 239 244 238 229 238 242 237 239 236 229 240 245 242 245 252 259 264 266 268 274 278 280 281 282 285 287 287 286 285 284 282 280 280 281 284 285 285 284 283 280 278 276 275 274 275 276 277
205 206 206 206 208 208 210 213 214 211 209 211 213 214 217 219 224 232 237 242 228 216 229 238 226 218 220 224 231 223 220 238 241 224 224 233 237 247 254 251 252 256 258 262 264 268 275 279 280 281 281 283 285 286 287 286 286 285 283 282 281 283 286 287 287 287 286 287 287 285 282 279 278 277
207 206 206 207 208 209 211 213 212 209 208 210 211 211 211 214 218 222 229 237 228 224 234 239 237 234 224 218 224 224 224 239 247 234 226 238 248 253 252 251 258 263 262 267 271 272 275 278 278 277 278 283 287 289 290 288 286 283 282 282 282 283 285 286 287 287 287 288 289 290 289 286 285 282
209 207 207 209 211 212 213 213 211 209 208 208 210 210 209 211 213 213 220 234 240 232 228 236 243 234 225 228 225 227 232 233 238 234 225 232 242 243 239 243 254 263 269 275 277 276 274 273 273 273 275 281 288 292 293 290 285 282 280 282 284 287 289 290 290 289 288 287 287 288 288 288 287 286
209 207 208 209 211 213 216 215 213 210 208 209 210 211 212 213 213 211 215 229 241 240 227 228 237 227 225 234 227 226 236 230 226 230 229 228 230 235 242 248 253 259 267 277 278 275 271 267 267 269 271 278 285 290 292 290 286 284 285 287 290 292 295 296 296 294 293 292 290 289 289 288 287 286
209 208 209 210 210 212 215 216 215 214 212 212 213 214 214 218 218 214 217 226 238 248 241 229 232 228 225 235 236 231 234 233 231 233 234 232 233 238 243 251 260 262 264 270 276 273 268 265 264 265 267 273 280 285 288 288 286 286 287 291 295 296 296 297 298 299 299 298 296 293 291 288 286 284
210 209 210 211 211 211 213 214 215 215 213 212 214 215 215 218 222 220 221 226 233 246 249 240 236 238 235 240 243 235 232 235 235 237 241 239 239 244 248 255 262 261 261 269 275 272 267 262 260 262 265 269 274 281 286 287 285 286 289 293 296 297 298 300 301 303 302 300 298 296 294 290 287 285
210 211 212 212 210 210 211 213 214 214 213 211 212 215 216 216 220 222 223 226 229 236 245 246 240 238 239 243 243 241 242 241 236 237 243 243 243 248 255 263 268 266 270 277 279 275 270 264 260 260 262 267 274 278 283 285 284 286 291 294 294 295 297 300 300 300 300 298 295 294 293 293 292 290
211 212 214 213 211 210 210 212 214 212 210 210 212 214 215 214 216 221 223 224 226 230 237 244 243 238 239 243 245 246 247 248 247 244 245 246 248 250 256 269 274 273 274 276 275 275 273 266 259 258 262 269 275 280 285 285 284 289 294 295 293 293 293 293 293 292 293 292 290 290 291 292 292 291
213 214 215 215 213 211 212 213 213 210 207 208 212 215 214 214 214 218 223 223 225 229 234 239 241 240 239 241 244 246 245 246 249 250 252 255 252 246 253 269 276 276 274 273 274 277 274 262 256 260 269 275 279 284 286 287 290 295 296 293 291 292 292 289 288 286 283 283 283 285 287 289 291 293
215 216 217 218 217 214 214 214 213 210 206 206 211 214 212 212 214 217 220 222 224 228 233 237 238 238 239 239 240 239 236 239 243 243 248 258 260 257 258 262 266 270 273 278 282 282 280 270 260 264 275 282 287 291 291 294 300 300 290 287 291 293 292 288 284 280 276 275 277 279 282 285 287 289
215 216 218 220 219 217 217 218 217 212 207 206 209 211 210 209 211 216 219 220 224 228 231 235 235 234 235 233 233 233 230 234 241 238 237 250 260 265 268 267 262 261 272 285 286 282 279 275 269 271 277 280 286 295 298 299 301 295 286 293 295 290 288 285 279 277 276 277 279 280 282 283 284 283
215 216 219 220 221 221 222 224 222 217 212 213 213 209 208 208 207 210 215 220 227 228 228 231 232 233 235 231 232 236 235 234 234 226 229 243 254 262 271 275 267 255 269 287 287 282 280 278 279 283 284 283 287 292 294 291 287 285 291 296 291 284 282 281 280 281 282 283 284 284 284 284 283 281
214 215 217 219 221 222 224 226 227 223 219 221 222 217 213 213 208 206 209 218 227 228 226 230 232 232 234 233 234 238 238 232 226 226 232 242 256 265 272 280 280 259 261 283 286 283 283 284 287 288 287 288 290 290 289 285 283 287 293 294 290 285 284 284 285 287 288 287 286 285 284 283 283 281
214 214 215 216 216 219 222 223 225 227 225 225 227 224 220 219 215 212 211 215 224 228 227 228 231 232 232 232 233 237 239 234 226 228 235 240 257 269 274 284 290 274 263 288 290 287 290 290 287 286 286 287 288 289 288 284 282 290 297 298 295 293 293 293 293 292 291 288 285 283 282 281 281 281
214 213 213 212 210 216 223 221 217 221 226 226 227 226 224 223 223 223 223 222 223 226 229 230 230 231 229 230 232 234 235 232 227 232 241 245 255 265 274 287 292 289 288 296 294 291 292 291 285 283 287 288 289 293 289 282 286 298 305 305 304 306 305 303 300 296 291 288 285 283 284 283 282 281
217 214 211 211 209 210 220 222 212 208 217 222 223 222 222 223 225 227 231 231 225 223 229 234 231 228 227 228 230 222 212 216 226 235 243 250 257 268 280 287 287 284 280 278 287 291 289 287 286 285 289 291 292 292 288 286 293 302 310 315 312 311 308 304 302 299 295 291 288 287 287 288 288 286
224 219 213 212 211 207 214 222 217 204 203 210 213 214 216 218 220 225 230 230 223 220 224 228 228 227 223 216 210 204 200 207 217 223 231 245 264 277 281 281 278 277 266 241 261 283 286 288 289 286 291 295 295 296 293 291 293 297 309 320 318 313 312 308 302 299 297 294 292 291 290 290 291 291
228 227 220 215 213 207 210 222 223 211 200 201 205 206 208 210 214 221 225 224 217 214 216 219 222 222 215 205 202 201 199 198 201 212 220 221 232 248 259 272 277 273 255 222 237 269 283 291 292 289 294 299 297 296 294 290 289 293 304 314 318 317 319 318 311 304 300 299 299 298 298 297 295 292
227 229 225 220 217 210 208 220 226 216 204 203 207 205 202 205 211 216 218 215 212 209 211 216 219 218 212 211 213 212 211 207 202 209 219 226 243 255 259 268 268 262 256 230 222 262 288 297 295 292 296 299 296 294 291 287 290 294 299 307 314 315 314 315 315 310 303 303 304 304 303 302 299 296
225 228 227 224 221 215 211 217 223 217 206 203 205 205 202 206 211 209 201 200 205 207 208 214 217 216 215 217 214 213 217 216 208 206 218 234 251 257 253 250 249 257 260 215 193 272 301 302 299 297 298 296 293 292 292 290 290 293 298 306 310 308 307 309 312 310 306 305 306 305 305 304 302 300
222 225 226 225 223 219 214 216 221 217 208 203 202 203 204 206 210 205 193 190 197 198 199 205 209 209 211 211 209 211 214 212 206 204 215 230 235 235 239 236 232 256 256 184 179 280 301 303 302 299 299 298 294 296 297 294 295 299 301 302 302 301 304 308 310 310 309 309 308 309 311 310 307 302
217 220 222 223 224 221 215 217 220 217 211 204 200 199 203 205 206 200 192 193 196 192 190 195 196 195 198 198 198 203 204 204 206 205 210 218 216 217 228 227 225 253 259 155 163 290 299 299 300 296 296 295 293 296 300 301 303 303 301 303 303 303 305 306 308 309 307 304 303 306 310 310 307 300
213 215 216 218 222 219 215 216 218 216 212 207 200 197 201 205 204 197 191 192 195 193 190 191 186 182 189 193 193 194 193 197 203 201 202 206 205 207 221 228 234 252 253 198 259 295 292 289 292 293 292 290 290 298 304 304 303 303 303 306 305 305 306 305 305 306 304 302 303 306 308 307 303 299
210 212 212 214 217 217 215 214 215 215 211 207 203 199 199 202 202 198 192 188 190 191 189 190 189 185 189 197 198 195 192 191 192 192 194 197 198 206 217 221 234 248 259 277 291 285 272 276 286 289 290 291 294 300 302 300 303 307 307 307 306 307 308 307 306 306 304 302 303 302 300 299 299 299
207 208 209 210 212 214 213 211 213 212 207 204 203 199 196 199 198 196 191 185 187 190 189 192 194 190 193 199 198 194 190 184 183 186 189 190 193 206 214 210 221 239 252 270 277 264 256 268 277 278 285 291 294 297 299 300 305 308 307 308 309 308 308 309 308 306 304 303 302 301 300 300 300 300
205 205 205 205 206 210 211 209 208 207 204 203 200 194 194 197 193 190 189 185 186 189 191 195 198 194 195 198 194 189 185 177 176 181 185 188 194 207 215 216 222 234 245 255 260 255 251 259 268 273 279 285 288 291 295 298 301 304 307 310 311 310 310 309 307 306 307 307 306 304 304 304 303 301
208 206 204 203 203 206 207 204 202 201 201 201 196 190 191 193 189 188 188 185 187 191 193 196 199 195 194 195 190 182 174 168 172 180 186 192 200 211 217 219 224 233 242 248 250 249 245 250 263 273 276 278 281 284 288 292 296 300 303 305 307 308 308 308 309 311 310 309 308 307 305 303 302 301
216 210 205 202 202 204 202 198 196 196 196 195 192 189 189 190 189 190 189 186 189 194 195 198 199 194 191 190 181 172 167 167 174 183 190 194 204 216 219 219 227 236 237 237 241 244 242 246 258 268 273 276 277 279 284 288 291 294 296 299 302 305 307 310 312 313 313 312 310 307 304 301 299 297
221 211 204 204 204 203 199 194 192 192 191 189 188 188 188 189 190 192 192 190 190 192 195 198 197 189 185 182 173 169 170 174 180 188 193 199 214 224 222 220 233 244 235 230 236 238 238 248 259 264 267 272 275 278 282 283 284 287 291 294 297 300 305 310 312 314 317 317 312 306 303 301 298 295
216 204 198 200 201 196 190 187 186 186 184 183 185 186 187 189 190 191 193 191 187 187 192 195 190 181 179 178 176 175 177 181 186 193 196 204 221 228 222 220 238 253 244 233 233 232 235 247 256 257 258 264 270 277 280 279 277 279 285 290 295 299 303 308 313 317 320 316 311 306 303 301 298 296
203 192 187 190 190 185 180 178 177 177 177 178 181 184 186 187 188 190 192 188 182 183 188 189 182 176 177 180 181 181 182 186 192 198 198 201 213 221 222 229 243 255 256 248 239 235 239 246 252 256 259 261 263 267 272 275 275 275 282 291 294 296 303 309 311 315 319 315 310 307 304 301 299 297
194 185 183 184 183 179 175 173 172 171 171 172 177 181 183 184 185 188 190 186 182 183 184 181 174 174 180 183 184 185 187 190 196 200 200 200 208 218 225 234 239 240 245 251 248 244 246 252 258 262 264 264 260 254 251 257 268 275 281 291 295 296 303 309 310 313 315 313 308 306 303 301 300 298
192 184 180 179 179 178 175 172 170 168 168 171 175 177 178 180 184 188 188 185 182 180 178 174 172 176 183 186 188 189 190 194 199 199 197 202 212 220 228 234 235 233 236 243 247 247 250 259 269 274 276 276 272 257 239 234 249 276 282 286 296 299 301 306 310 311 312 310 308 306 303 302 301 300
191 184 178 176 177 177 174 172 170 168 169 173 174 174 173 175 182 188 188 184 180 178 174 172 172 179 185 189 192 193 192 198 203 196 193 207 218 222 227 230 227 230 238 242 244 244 247 259 270 281 287 287 291 283 242 213 215 264 290 293 297 300 302 305 307 307 308 310 309 307 303 301 301 301
191 184 179 178 180 178 174 173 171 169 170 172 174 175 175 175 180 186 185 182 180 176 172 170 172 180 188 192 195 195 195 205 213 207 205 217 224 224 225 223 216 220 231 236 236 235 242 254 260 271 283 285 288 301 286 222 217 245 276 292 298 298 300 302 303 305 308 309 308 307 304 300 299 299
193 186 182 181 181 178 174 172 170 168 168 169 171 175 178 176 178 185 187 184 180 174 168 169 173 181 190 194 196 199 204 211 218 217 216 222 227 226 223 219 214 216 222 227 230 230 235 247 252 259 272 279 278 291 305 296 274 266 274 288 293 294 296 299 302 306 309 309 308 307 303 299 296 296
190 187 185 181 179 177 173 170 168 167 167 168 169 173 176 173 174 182 186 185 181 173 166 167 172 180 191 197 197 203 212 215 216 219 220 223 225 223 219 216 213 211 217 225 229 226 228 238 249 255 262 273 283 291 298 299 294 289 285 282 278 276 285 297 303 307 310 310 309 307 303 299 297 297
186 184 185 181 177 174 170 167 167 165 164 166 169 170 169 167 171 180 184 185 182 173 165 165 171 180 191 197 199 208 218 219 217 218 218 218 219 218 216 212 206 206 217 225 226 228 233 237 240 243 254 271 283 287 286 284 283 281 281 277 268 264 276 291 300 305 308 309 310 308 305 304 304 305
180 179 178 175 171 168 164 161 161 160 161 165 168 166 164 168 176 182 186 187 184 173 163 163 171 180 189 196 202 212 218 214 211 210 209 211 216 214 207 202 200 206 219 225 225 228 232 234 239 248 259 270 276 276 276 275 277 282 288 291 288 282 284 293 299 299 301 305 308 307 306 306 307 307
175 172 170 165 161 159 157 155 155 157 160 162 162 159 159 167 177 181 184 188 185 173 161 161 171 181 190 197 202 206 206 202 202 205 205 210 213 206 198 200 208 212 214 218 222 225 227 237 253 260 265 266 265 267 271 276 284 291 294 295 294 291 293 299 301 300 301 303 302 300 301 306 308 309
167 162 157 153 151 151 151 152 154 156 157 156 154 152 154 163 172 177 182 185 182 172 163 164 172 181 188 191 194 198 199 199 201 203 204 210 212 206 200 202 206 207 207 210 218 226 232 242 249 258 264 263 261 266 273 279 285 290 291 294 297 297 297 299 303 307 308 304 298 293 292 293 293 298
154 150 145 143 145 148 151 152 152 151 152 152 152 153 157 164 171 177 181 182 178 171 168 169 174 180 183 183 187 194 199 201 201 200 202 209 212 211 208 201 198 201 206 210 215 221 229 240 252 260 265 267 268 271 276 281 286 289 292 295 295 295 298 304 309 311 310 307 304 300 293 288 288 292
137 137 137 139 143 147 148 149 148 149 152 154 157 161 166 170 173 176 178 178 174 171 171 172 174 177 180 182 187 193 196 196 196 197 201 206 208 211 213 207 200 202 205 206 211 220 226 240 256 261 263 266 268 270 275 280 283 284 286 289 291 297 305 311 313 313 313 312 311 307 302 300 301 302